Location: ?ern� Novina
(50.6762°N, 14.8696°E)
Time: 02:57:32
(UTC+00:00)

USA 234 - Pass Details

Date: 03 March 2021
Orbit: 1102 x 1105 km, 123.0° (Epoch: 13 April)

Event Time Altitude Azimuth Distance (km) Brightness Sun altitude
Exits shadow 19:39:57 55° 66° (ENE) 1,311 3.3 -27.8°
Maximum altitude 19:41:36 85° 149° (SSE) 1,113 3.1 -28.0°
Drops below altitude 10° 19:48:09 10° 238° (WSW) 2,958 5.8 -28.9°
Sets 19:50:38 0° 239° (WSW) 3,914 6.5 -29.3°
